[[[{"header":{"parameterUnit":"kt","parameterCategory":2,"dx":1,"dy":1,"la1":30.253999710083008,"la2":30.299108505249023,"lo1":-89.0895004272461,"lo2":-89.04439544677734,"nx":28,"ny":28,"refTime":"2022-10-06T21:00:00:Z","depth":0,"parameterNumber":1,"parameterNumberName":"U-component_of_WINDS"},"data":[-5.9398,-5.9498,-5.9477,-5.9582,-5.958,-5.9648,-5.9665,-5.9685,-5.9695,-5.9772,-5.9813,-5.9801,-5.9802,-5.9844,-5.9886,-5.988,-5.99,-5.9951,-5.9935,-5.9725,-5.9695,-5.9666,-5.9642,-5.9955,-5.9956,-6.0157,-6.0159,-6.016,-5.9246,-5.9246,-5.9295,-5.9328,-5.937,-5.9308,-5.9328,-5.9367,-5.9429,-5.9442,-5.948,-5.9546,-5.9595,-5.9578,-5.9621,-5.9667,-5.964,-5.968,-5.9678,-5.9679,-5.9453,-5.9428,-5.9701,-5.9701,-5.9701,-5.9701,-5.9701,-5.9701,-5.8965,-5.9026,-5.9034,-5.9086,-5.9097,-5.9119,-5.9173,-5.9157,-5.9203,-5.9247,-5.921,-5.928,-5.9288,-5.9328,-5.9336,-5.9389,-5.934,-5.9377,-5.9387,-5.9398,-5.9414,-5.9131,-5.9394,-5.9393,-5.9393,-5.9392,-5.9391,0,-5.8753,-5.8732,-5.8777,-5.8816,-5.8853,-5.8881,-5.8903,-5.8935,-5.8879,-5.8921,-5.8978,-5.9007,-5.9064,-5.9115,-5.915,-5.915,-5.9091,-5.9081,-5.9107,-5.9128,-5.9142,-5.9138,-5.8773,-5.9074,-5.9071,-5.9069,-5.9068,-5.9067,-5.8471,-5.8544,-5.854,-5.8575,-5.8581,-5.8638,-5.8667,-5.8612,-5.8645,-5.8663,-5.8719,-5.8769,-5.8807,-5.8901,-5.888,-5.8923,-5.8895,-5.9012,-5.8901,-5.8917,-5.89,-5.8897,-5.8905,-5.9037,-5.904,-5.9043,-5.9046,0,-5.8314,-5.8278,-5.8384,-5.8372,-5.8372,-5.8451,-5.8441,-5.8499,-5.8476,-5.8552,-5.8566,-5.8531,-5.8588,-5.8548,-5.8604,-5.8581,-5.8711,-5.8681,-5.8708,-5.8701,-5.8804,-5.8796,-5.9142,-5.9185,-5.8856,-5.8859,-5.8862,0,-5.806,-5.8157,-5.8098,-5.8161,-5.8267,-5.821,-5.8316,-5.8307,-5.8312,-5.8372,-5.8296,-5.8354,-5.8292,-5.8344,-5.8311,-5.8409,-5.8419,-5.8408,-5.8399,-5.8417,-5.8419,-5.8435,-5.8422,-5.8371,-5.8369,-5.8368,-5.8366,0,-5.7821,-5.7902,-5.8004,-5.8016,-5.8014,-5.8063,-5.8064,-5.807,-5.8098,-5.8128,-5.8147,-5.8186,-5.8208,-5.8239,-5.8197,-5.8123,-5.8315,-5.8204,-5.8304,-5.8306,-5.8351,-5.835,-5.8663,-5.8364,-5.8364,-5.8363,-5.8362,0,-5.7611,-5.7644,-5.7796,-5.7792,-5.7816,-5.7882,-5.7917,-5.7964,-5.7976,-5.7959,-5.7982,-5.7928,-5.8008,-5.7902,-5.8013,-5.7929,-5.7955,-5.7952,-5.7958,-5.7965,-5.7848,-5.8034,-5.8334,-5.8365,-5.7969,-5.7965,-5.7963,0,-5.7349,-5.7492,-5.7444,-5.7589,-5.765,-5.7562,-5.7634,-5.7646,-5.763,-5.7679,-5.7659,-5.7715,-5.7627,-5.7639,-5.7699,-5.7683,-5.7791,-5.7666,-5.7739,-5.7742,-5.7742,-5.8016,-5.8073,-5.8272,-5.792,-5.7924,-5.7928,0,-5.7141,-5.7137,-5.7167,-5.7179,-5.7186,-5.7236,-5.7318,-5.7361,-5.7397,-5.7417,-5.7486,-5.7562,-5.7499,-5.752,-5.7479,-5.7544,-5.7716,-5.7468,-5.7467,-5.7516,-5.7894,-5.7947,-5.7981,-5.7674,-5.7679,-5.7683,-5.7894,0,-5.6837,-5.6903,-5.698,-5.7009,-5.7041,-5.7129,-5.7086,-5.7125,-5.7083,-5.7063,-5.7162,-5.7161,-5.7205,-5.723,-5.719,-5.735,-5.7318,-5.725,-5.7145,-5.7325,-5.7393,-5.7421,-5.7047,-5.7043,-5.7041,-5.7038,0,0,-5.6596,-5.669,-5.6634,-5.6713,-5.6737,-5.6644,-5.6742,-5.6754,-5.6781,-5.6799,-5.674,-5.6848,-5.685,-5.6975,-5.7027,-5.7044,-5.7069,-5.7008,-5.7239,-5.7262,-5.7282,-5.7356,-5.7386,-5.7033,-5.7032,-5.7031,-5.703,0,-5.6477,-5.648,-5.6578,-5.6587,-5.66,-5.6574,-5.6598,-5.6594,-5.6586,-5.6682,-5.6605,-5.6659,-5.6746,-5.6759,-5.6777,-5.6991,-5.6931,-5.7007,-5.7138,-5.7212,-5.7238,-5.7262,-5.734,-5.7368,-5.7023,-5.7024,-5.7024,0,-5.6267,-5.6264,-5.6306,-5.6354,-5.6362,-5.6426,-5.6305,-5.6377,-5.6424,-5.6319,-5.6416,-5.641,-5.6422,-5.6545,-5.6599,-5.6547,-5.6807,-5.6716,-5.6733,-5.6739,-5.6808,-5.684,-5.6868,-5.6497,-5.6495,-5.6494,0,0,-5.617,-5.623,-5.621,-5.6325,-5.6335,-5.6299,-5.6328,-5.6289,-5.6302,-5.6308,-5.6299,-5.6315,-5.6365,-5.6399,-5.6444,-5.6584,-5.6583,-5.6653,-5.6678,-5.6699,-5.6716,-5.6791,-5.6822,-5.6488,-5.6488,-5.6487,0,0,-5.6123,-5.6104,-5.6059,-5.6188,-5.6204,-5.6191,-5.6264,-5.6208,-5.6244,-5.623,-5.6167,-5.6168,-5.6282,-5.6279,-5.6201,-5.6406,-5.6303,-5.6321,-5.6405,-5.6435,-5.646,-5.6459,-5.6078,0,0,0,0,0,-5.5979,-5.6106,-5.6066,-5.6081,-5.6142,-5.6214,-5.6221,-5.6172,-5.6101,-5.6159,-5.6143,-5.6075,-5.6224,-5.6153,-5.6169,-5.6258,-5.6407,-5.6422,-5.6435,-5.6576,-5.6608,-5.6636,0,0,0,0,0,0,-5.5985,-5.6004,-5.6062,-5.6056,-5.6069,-5.6208,-5.6077,-5.6067,-5.6093,-5.6079,-5.608,-5.6075,-5.6035,-5.6141,-5.6157,-5.6242,-5.6072,-5.6413,-5.6425,-5.6436,-5.6587,-5.6613,-5.6636,0,0,0,0,0,-5.5989,-5.6004,-5.6114,-5.6054,-5.6065,-5.6031,-5.6071,-5.6062,-5.6082,-5.6056,-5.6049,-5.6043,-5.6038,-5.6048,-5.615,-5.6236,-5.6061,-5.6067,-5.6421,-5.643,-5.6439,-5.66,0,0,0,0,0,0,-5.5992,-5.5996,-5.6115,-5.6117,-5.6002,-5.6022,-5.6024,-5.6059,-5.6056,-5.605,-5.6015,-5.6004,-5.6043,-5.6049,-5.6057,-5.6237,-5.6053,-5.6059,-5.6062,-5.6428,-5.6435,-5.6442,0,0,0,0,0,0,-5.5987,-5.5998,-5.6116,-5.6054,-5.6048,-5.6015,-5.6016,-5.6095,-5.6057,-5.6015,-5.6006,-5.6011,-5.6031,-5.6051,-5.6056,-5.6182,-5.6046,-5.6052,-5.6055,-5.6058,-5.6434,-5.644,0,0,0,0,0,0,-5.5991,-5.6,-5.6053,-5.6049,-5.6043,-5.6058,-5.6084,-5.6149,-5.6004,-5.6017,-5.599,-5.5983,-5.6035,-5.6039,-5.6057,-5.6181,-5.6182,-5.6046,-5.605,-5.6053,-5.6054,0,0,0,0,0,0,0,-5.5994,-5.5945,-5.6106,-5.6044,-5.6039,-5.6132,-5.6133,-5.6133,-5.6003,-5.5997,-5.5991,-5.5986,-5.6014,-5.602,-5.6026,-5.618,0,0,-5.6045,-5.6048,0,0,0,0,0,0,0,0,-5.594,-5.5944,-5.6106,-5.6106,-5.6106,-5.6132,-5.6133,-5.6133,-5.6002,-5.5997,-5.5993,-5.5988,-5.6015,-5.602,-5.6025,0,0,0,0,0,0,0,0,0,0,0,0,0,0,0,-5.6106,-5.6106,0,-5.6132,-5.6133,-5.6133,-5.6001,-5.5997,-5.5994,-5.599,-5.6017,-5.6021,-5.6025,0,0,0,0,0,0,0,0,0,0,0,0,0,0,0,0,0,0,0,0,0,0,0,0,0,0,0,0,0,0,0,0,0,0,0,0,0,0,0,0,0,0,0,0,0,0,0,0,0,0,0,0,0,0,0,0,0,0,0,0,0,0,0,0,0,0,0,0,0]}],[{"header":{"parameterUnit":"kt","parameterCategory":2,"dx":1,"dy":1,"la1":30.253999710083008,"la2":30.299108505249023,"lo1":-89.0895004272461,"lo2":-89.04439544677734,"nx":28,"ny":28,"refTime":"2022-10-06T21:00:00:Z","depth":0,"parameterNumber":2,"parameterNumberName":"V-component_of_WINDS"},"data":[-11.5453,-11.5592,-11.5585,-11.5738,-11.5757,-11.586,-11.5893,-11.5935,-11.5965,-11.6083,-11.6148,-11.6151,-11.6174,-11.6247,-11.6315,-11.6313,-11.6343,-11.6398,-11.6387,-11.6151,-11.6117,-11.6085,-11.6054,-11.6405,-11.6405,-11.6634,-11.6637,-11.6638,-11.5282,-11.5304,-11.5383,-11.5455,-11.5522,-11.5465,-11.5515,-11.5573,-11.5665,-11.5702,-11.5766,-11.5867,-11.5944,-11.5947,-11.6019,-11.6079,-11.6055,-11.6099,-11.6095,-11.61,-11.5846,-11.5813,-11.6118,-11.6118,-11.6118,-11.6118,-11.6118,-11.6118,-11.4969,-11.5052,-11.5092,-11.5177,-11.521,-11.5257,-11.5333,-11.5336,-11.541,-11.5487,-11.5459,-11.5561,-11.5594,-11.5673,-11.5696,-11.5772,-11.572,-11.5765,-11.5776,-11.5788,-11.5805,-11.5478,-11.5783,-11.5782,-11.5781,-11.578,-11.578,0,-11.4738,-11.4727,-11.4801,-11.4875,-11.4936,-11.499,-11.5037,-11.5084,-11.5051,-11.5113,-11.5201,-11.525,-11.5344,-11.5423,-11.5486,-11.55,-11.5443,-11.5435,-11.5466,-11.5483,-11.5491,-11.549,-11.5078,-11.5427,-11.5423,-11.5421,-11.542,-11.5418,-11.4423,-11.4519,-11.4556,-11.4609,-11.4633,-11.4719,-11.4767,-11.4731,-11.4784,-11.4834,-11.4906,-11.4986,-11.5048,-11.5187,-11.5184,-11.5252,-11.5225,-11.536,-11.5235,-11.5247,-11.5229,-11.5225,-11.5234,-11.5386,-11.539,-11.5393,-11.5396,0,-11.4246,-11.4233,-11.4379,-11.4404,-11.4412,-11.4514,-11.4533,-11.4612,-11.4604,-11.4711,-11.4733,-11.4721,-11.4806,-11.4781,-11.4871,-11.4855,-11.5019,-11.499,-11.5008,-11.5002,-11.5121,-11.5111,-11.5509,-11.5559,-11.5194,-11.5197,-11.52,0,-11.3972,-11.4099,-11.4072,-11.4157,-11.4297,-11.4257,-11.4395,-11.4403,-11.4431,-11.4515,-11.4447,-11.4526,-11.4482,-11.4557,-11.4533,-11.4662,-11.4678,-11.4674,-11.4666,-11.4681,-11.4682,-11.4707,-11.4691,-11.4643,-11.4641,-11.464,-11.4638,0,-11.3699,-11.3831,-11.397,-11.3998,-11.4035,-11.41,-11.4118,-11.4149,-11.4195,-11.4251,-11.428,-11.4347,-11.4384,-11.4435,-11.4405,-11.4322,-11.4561,-11.444,-11.4557,-11.4558,-11.4612,-11.4609,-11.4968,-11.4636,-11.4635,-11.4634,-11.4634,0,-11.3475,-11.3537,-11.3739,-11.3769,-11.3805,-11.3894,-11.396,-11.4031,-11.4068,-11.406,-11.4102,-11.4054,-11.4164,-11.4046,-11.4196,-11.4096,-11.4135,-11.4141,-11.4148,-11.4158,-11.4026,-11.4234,-11.4576,-11.4612,-11.4165,-11.4161,-11.4158,0,-11.3166,-11.3367,-11.3335,-11.3527,-11.3616,-11.3537,-11.3635,-11.367,-11.3667,-11.374,-11.3735,-11.3817,-11.3723,-11.3745,-11.3823,-11.3821,-11.395,-11.3802,-11.3905,-11.3909,-11.39,-11.4215,-11.4273,-11.4504,-11.4107,-11.4112,-11.4116,0,-11.2925,-11.2971,-11.3008,-11.3038,-11.308,-11.3153,-11.3265,-11.3339,-11.339,-11.3435,-11.3528,-11.3641,-11.3575,-11.3612,-11.3578,-11.3661,-11.3861,-11.3578,-11.3578,-11.3631,-11.4079,-11.4134,-11.4173,-11.382,-11.3826,-11.3831,-11.4076,0,-11.2594,-11.2691,-11.2789,-11.2857,-11.2909,-11.3027,-11.3003,-11.3061,-11.3025,-11.3019,-11.3154,-11.3173,-11.3245,-11.3281,-11.3246,-11.3442,-11.3405,-11.3333,-11.3217,-11.3423,-11.3503,-11.3536,-11.31,-11.3096,-11.3093,-11.309,0,0,-11.2303,-11.2442,-11.2403,-11.2512,-11.2554,-11.2469,-11.2597,-11.2627,-11.2689,-11.2719,-11.2654,-11.2817,-11.2835,-11.3001,-11.3063,-11.3091,-11.3124,-11.3052,-11.3325,-11.3351,-11.3375,-11.3461,-11.3496,-11.3085,-11.3084,-11.3083,-11.3082,0,-11.2177,-11.2203,-11.2332,-11.2362,-11.2405,-11.2393,-11.2424,-11.2451,-11.2453,-11.2584,-11.251,-11.2586,-11.2717,-11.2747,-11.2779,-11.3032,-11.297,-11.3055,-11.3201,-11.3295,-11.3325,-11.3352,-11.3443,-11.3476,-11.3074,-11.3075,-11.3075,0,-11.1937,-11.1959,-11.2018,-11.211,-11.2137,-11.2229,-11.2102,-11.2204,-11.2271,-11.2168,-11.23,-11.2307,-11.2343,-11.2503,-11.2572,-11.2515,-11.2833,-11.2726,-11.2745,-11.2752,-11.2841,-11.2878,-11.291,-11.2483,-11.2481,-11.2479,0,0,-11.1831,-11.1922,-11.1932,-11.2081,-11.2104,-11.2087,-11.2133,-11.2102,-11.2139,-11.2154,-11.2162,-11.2198,-11.2273,-11.2323,-11.2392,-11.257,-11.2574,-11.2655,-11.2683,-11.2706,-11.2725,-11.2821,-11.2857,-11.2472,-11.2472,-11.2471,0,0,-11.178,-11.1799,-11.1757,-11.1928,-11.1968,-11.1985,-11.2076,-11.2024,-11.2084,-11.2068,-11.2017,-11.2024,-11.2172,-11.2181,-11.2087,-11.235,-11.2235,-11.2257,-11.2339,-11.2374,-11.2401,-11.2396,-11.1957,0,0,0,0,0,-11.164,-11.1797,-11.1759,-11.1784,-11.1898,-11.2007,-11.2021,-11.1985,-11.1905,-11.1978,-11.1976,-11.1907,-11.212,-11.2035,-11.2059,-11.2165,-11.2377,-11.2394,-11.241,-11.2558,-11.2594,-11.2625,0,0,0,0,0,0,-11.1649,-11.168,-11.1755,-11.178,-11.1805,-11.2001,-11.1858,-11.1852,-11.1896,-11.1881,-11.1909,-11.1907,-11.1876,-11.202,-11.2042,-11.2144,-11.1949,-11.2384,-11.2398,-11.2411,-11.257,-11.26,-11.2626,0,0,0,0,0,-11.1657,-11.1682,-11.1875,-11.1777,-11.1799,-11.1789,-11.1852,-11.1846,-11.1879,-11.1876,-11.1872,-11.1847,-11.188,-11.1896,-11.2033,-11.2135,-11.1934,-11.1942,-11.2393,-11.2404,-11.2414,-11.2585,0,0,0,0,0,0,-11.1662,-11.1676,-11.1878,-11.1883,-11.1716,-11.1777,-11.1786,-11.184,-11.1869,-11.1867,-11.181,-11.1799,-11.1885,-11.1896,-11.1909,-11.2134,-11.1921,-11.1929,-11.1935,-11.2402,-11.2411,-11.2418,0,0,0,0,0,0,-11.1662,-11.1681,-11.1881,-11.1805,-11.1801,-11.1766,-11.1774,-11.1884,-11.187,-11.1802,-11.1793,-11.1805,-11.1865,-11.1898,-11.1907,-11.208,-11.1911,-11.1919,-11.1925,-11.1929,-11.2409,-11.2416,0,0,0,0,0,0,-11.1669,-11.1685,-11.1803,-11.1801,-11.1797,-11.1852,-11.1862,-11.198,-11.1809,-11.1802,-11.1792,-11.1785,-11.1868,-11.1876,-11.1906,-11.2075,-11.2079,-11.1911,-11.1917,-11.1921,-11.1924,0,0,0,0,0,0,0,-11.1675,-11.1577,-11.1848,-11.1797,-11.1793,-11.1931,-11.1933,-11.1934,-11.1807,-11.1801,-11.1794,-11.1788,-11.1864,-11.1873,-11.1882,-11.2072,0,0,-11.1911,-11.1915,0,0,0,0,0,0,0,0,-11.1569,-11.1575,-11.1848,-11.1849,-11.185,-11.1932,-11.1933,-11.1934,-11.1806,-11.1801,-11.1796,-11.179,-11.1867,-11.1874,-11.1881,0,0,0,0,0,0,0,0,0,0,0,0,0,0,0,-11.1848,-11.1849,0,-11.1932,-11.1933,-11.1934,-11.1806,-11.1801,-11.1797,-11.1792,-11.1869,-11.1875,-11.1881,0,0,0,0,0,0,0,0,0,0,0,0,0,0,0,0,0,0,0,0,0,0,0,0,0,0,0,0,0,0,0,0,0,0,0,0,0,0,0,0,0,0,0,0,0,0,0,0,0,0,0,0,0,0,0,0,0,0,0,0,0,0,0,0,0,0,0,0,0]}]]]